TimeCST,TemperatureF,Dew PointF,Humidity,Sea Level PressureIn,VisibilityMPH,Wind Direction,Wind SpeedMPH,Gust SpeedMPH,PrecipitationIn,Events,Conditions,WindDirDegrees,DateUTC
12:55 AM,-8.7,-12.8,82,30.22,10.0,West,6.9,-,N/A,,Clear,260,2012-12-20 06:55:00
1:55 AM,-7.1,-11.2,82,30.22,10.0,West,3.5,-,N/A,,Clear,260,2012-12-20 07:55:00
2:55 AM,-7.2,-11.2,83,30.22,10.0,West,5.8,-,N/A,,Clear,260,2012-12-20 08:55:00
3:55 AM,-10.1,-14.4,81,30.23,10.0,WSW,4.6,-,N/A,,Clear,250,2012-12-20 09:55:00
4:55 AM,-8.9,-13.4,81,30.23,8.0,WSW,4.6,-,N/A,,Clear,250,2012-12-20 10:55:00
5:55 AM,-9.9,-14.3,81,30.23,10.0,Calm,Calm,-,N/A,,Clear,0,2012-12-20 11:55:00
6:55 AM,-10.5,-15.0,80,30.23,10.0,Calm,Calm,-,N/A,,Clear,0,2012-12-20 12:55:00
7:55 AM,-12.3,-17.1,79,30.24,10.0,Calm,Calm,-,N/A,,Clear,0,2012-12-20 13:55:00
8:55 AM,-12.1,-17.0,79,30.24,10.0,Calm,Calm,-,N/A,,Clear,0,2012-12-20 14:55:00
9:39 AM,-11.2,-16.6,77,30.25,1.8,Calm,Calm,-,N/A,,Haze,0,2012-12-20 15:39:00
9:40 AM,-11.2,-16.6,77,30.25,1.2,Calm,Calm,-,N/A,,Haze,0,2012-12-20 15:40:00
9:41 AM,-11.2,-16.6,77,30.25,1.0,Calm,Calm,-,N/A,,Haze,0,2012-12-20 15:41:00
9:42 AM,-11.2,-16.6,77,30.25,0.8,Calm,Calm,-,N/A,,Haze,0,2012-12-20 15:42:00
9:45 AM,-11.2,-14.8,84,30.25,0.5,Calm,Calm,-,N/A,,Haze,0,2012-12-20 15:45:00
9:47 AM,-9.4,-14.8,77,30.25,0.5,Calm,Calm,-,N/A,,Haze,0,2012-12-20 15:47:00
9:53 AM,-9.4,-14.8,77,30.25,0.5,Calm,Calm,-,N/A,,Haze,0,2012-12-20 15:53:00
9:55 AM,-9.6,-14.4,79,30.25,0.8,Calm,Calm,-,N/A,,Haze,0,2012-12-20 15:55:00
9:57 AM,-9.4,-14.8,77,30.25,1.0,Calm,Calm,-,N/A,,Haze,0,2012-12-20 15:57:00
9:58 AM,-9.4,-14.8,77,30.25,1.2,Calm,Calm,-,N/A,,Haze,0,2012-12-20 15:58:00
9:59 AM,-9.4,-14.8,77,30.25,1.5,Calm,Calm,-,N/A,,Haze,0,2012-12-20 15:59:00
10:01 AM,-9.4,-14.8,77,30.25,2.5,Calm,Calm,-,N/A,,Haze,0,2012-12-20 16:01:00
10:02 AM,-9.4,-13.0,84,30.25,4.0,Calm,Calm,-,N/A,,Haze,0,2012-12-20 16:02:00
10:55 AM,-4.0,-8.3,82,30.26,10.0,Calm,Calm,-,N/A,,Clear,0,2012-12-20 16:55:00
11:55 AM,0.7,-3.1,84,30.24,10.0,East,4.6,-,0.00,Snow,Light Snow,90,2012-12-20 17:55:00
12:55 PM,3.9,0.7,86,30.24,10.0,ESE,3.5,-,0.00,,Clear,110,2012-12-20 18:55:00
1:55 PM,5.7,2.7,87,30.22,10.0,East,3.5,-,N/A,,Clear,100,2012-12-20 19:55:00
2:55 PM,5.0,1.2,84,30.22,8.0,SSE,3.5,-,N/A,,Clear,160,2012-12-20 20:55:00
3:55 PM,4.6,0.3,82,30.23,10.0,SE,3.5,-,N/A,,Clear,130,2012-12-20 21:55:00
4:55 PM,1.0,-3.5,81,30.25,9.0,SSE,3.5,-,N/A,,Clear,150,2012-12-20 22:55:00
5:55 PM,-2.9,-6.5,85,30.25,10.0,SE,4.6,-,N/A,,Clear,130,2012-12-20 23:55:00
6:54 PM,-4.0,-7.6,85,30.26,6.0,SE,4.6,-,N/A,,Partly Cloudy,130,2012-12-21 00:54:00
6:55 PM,-3.3,-7.2,83,30.26,6.0,SE,4.6,-,N/A,,Partly Cloudy,130,2012-12-21 00:55:00
7:21 PM,-4.0,-7.6,85,30.26,2.5,SE,4.6,-,N/A,,Haze,130,2012-12-21 01:21:00
7:23 PM,-4.0,-7.6,85,30.26,1.5,SE,3.5,-,N/A,,Haze,140,2012-12-21 01:23:00
7:25 PM,-4.0,-7.6,85,30.26,1.2,SE,3.5,-,N/A,,Haze,140,2012-12-21 01:25:00
7:26 PM,-4.0,-7.6,85,30.27,1.0,SE,3.5,-,N/A,,Mist,130,2012-12-21 01:26:00
7:27 PM,-4.0,-7.6,85,30.26,1.0,SE,3.5,-,N/A,,Mist,130,2012-12-21 01:27:00
7:28 PM,-4.0,-7.6,85,30.26,1.0,SE,3.5,-,N/A,,Mist,130,2012-12-21 01:28:00
7:29 PM,-4.0,-7.6,85,30.26,1.0,SE,3.5,-,N/A,,Mist,140,2012-12-21 01:29:00
7:30 PM,-2.2,-7.6,78,30.26,1.0,SE,3.5,-,N/A,,Mist,140,2012-12-21 01:30:00
7:31 PM,-2.2,-7.6,78,30.26,1.2,SSE,3.5,-,N/A,,Mostly Cloudy,150,2012-12-21 01:31:00
7:33 PM,-4.0,-7.6,85,30.26,1.5,Calm,Calm,-,N/A,,Mostly Cloudy,0,2012-12-21 01:33:00
7:34 PM,-4.0,-7.6,85,30.26,1.8,Calm,Calm,-,N/A,,Haze,0,2012-12-21 01:34:00
7:35 PM,-4.0,-7.6,85,30.26,2.0,Calm,Calm,-,N/A,,Haze,0,2012-12-21 01:35:00
7:36 PM,-4.0,-7.6,85,30.26,3.0,Calm,Calm,-,N/A,,Haze,0,2012-12-21 01:36:00
7:47 PM,-5.8,-11.2,77,30.27,2.5,SSE,3.5,-,N/A,,Haze,150,2012-12-21 01:47:00
7:55 PM,-7.8,-12.5,80,30.27,2.0,Calm,Calm,-,N/A,,Haze,0,2012-12-21 01:55:00
7:56 PM,-7.6,-13.0,77,30.27,4.0,Calm,Calm,-,N/A,,Haze,0,2012-12-21 01:56:00
8:55 PM,-3.5,-7.6,82,30.27,10.0,Calm,Calm,-,N/A,,Clear,0,2012-12-21 02:55:00
8:58 PM,-4.0,-7.6,85,30.27,2.5,Calm,Calm,-,N/A,,Haze,0,2012-12-21 02:58:00
8:59 PM,-4.0,-7.6,85,30.27,1.8,Calm,Calm,-,N/A,,Haze,0,2012-12-21 02:59:00
9:00 PM,-4.0,-7.6,85,30.27,1.2,Calm,Calm,-,N/A,,Haze,0,2012-12-21 03:00:00
9:01 PM,-4.0,-7.6,85,30.27,1.0,ESE,3.5,-,N/A,,Haze,110,2012-12-21 03:01:00
9:02 PM,-4.0,-7.6,85,30.27,0.8,ESE,3.5,-,N/A,,Haze,110,2012-12-21 03:02:00
9:05 PM,-4.0,-7.6,85,30.27,0.8,Calm,Calm,-,N/A,,Haze,0,2012-12-21 03:05:00
9:06 PM,-4.0,-7.6,85,30.27,0.8,Calm,Calm,-,N/A,,Haze,0,2012-12-21 03:06:00
9:08 PM,-4.0,-7.6,85,30.27,0.8,Calm,Calm,-,N/A,,Haze,0,2012-12-21 03:08:00
9:09 PM,-4.0,-7.6,85,30.27,1.0,Calm,Calm,-,N/A,,Haze,0,2012-12-21 03:09:00
9:10 PM,-4.0,-7.6,85,30.27,1.2,Calm,Calm,-,N/A,,Haze,0,2012-12-21 03:10:00
9:11 PM,-4.0,-7.6,85,30.28,1.5,Calm,Calm,-,N/A,,Haze,0,2012-12-21 03:11:00
9:12 PM,-4.0,-7.6,85,30.28,2.0,Calm,Calm,-,N/A,,Haze,0,2012-12-21 03:12:00
9:13 PM,-4.0,-9.4,78,30.28,3.0,Calm,Calm,-,N/A,,Haze,0,2012-12-21 03:13:00
9:43 PM,-5.8,-9.4,84,30.27,10.0,Calm,Calm,-,N/A,,Partly Cloudy,0,2012-12-21 03:43:00
9:48 PM,-5.8,-11.2,77,30.27,2.5,Calm,Calm,-,N/A,,Haze,0,2012-12-21 03:48:00
9:55 PM,-6.2,-10.3,82,30.27,2.5,ESE,4.6,-,N/A,,Haze,110,2012-12-21 03:55:00
9:57 PM,-5.8,-9.4,84,30.27,3.0,ESE,3.5,-,N/A,,Haze,120,2012-12-21 03:57:00
10:55 PM,-9.4,-13.9,81,30.29,10.0,Calm,Calm,-,N/A,,Clear,0,2012-12-21 04:55:00
11:17 PM,-9.4,-13.0,84,30.28,6.0,Calm,Calm,-,N/A,,Haze,0,2012-12-21 05:17:00
11:55 PM,-8.9,-13.5,80,30.27,10.0,ESE,3.5,-,N/A,,Clear,120,2012-12-21 05:55:00